Dr. Bill's Marine Weather

Coastal Marine Forecast

       Alabama   Florida   Louisiana   Mississippi

Printer Friendly AL  FL  LA  MS

Data Buoys:   Western Gulf of Mexico    Eastern Gulf of Mexico
**********************************************************************
  Alabama
700 AM CST WED JAN 28 2015

ALZ051>064-281400-
SOUTHWEST ALABAMA
  
CITY           SKY/WX    TMP DP  RH WIND       PRES   REMARKS
MOBILE         CLEAR     39  33  79 NE6       30.27R WCI  35          
BROOKLEY FIELD CLEAR     45  35  68 N8        30.29R                  
EVERGREEN      CLEAR     31  30  96 CALM      30.27R                  
**********************************************************************
  Florida
800 AM EST WED JAN 28 2015

FLZ001>010-012>015-112-114-115-281400-
PANHANDLE FLORIDA
  
CITY           SKY/WX    TMP DP  RH WIND       PRES   REMARKS
PENSACOLA      CLEAR     42  33  70 N7        30.25R WCI  38          
PENSACOLA NAS  CLEAR     39  35  86 N6        30.25R WCI  35          
MILTON NAS     CLEAR     38  31  76 N3        30.26R                  
CRESTVIEW      CLEAR     38  31  76 NE5       30.27R WCI  34          
VALPARAISO     CLEAR     38  32  80 N7        30.25R WCI  33          
MARY ESTHER    CLEAR     38  31  77 N8        30.25R WCI  32          
TRI COUNTY     FAIR      34  33  96 CALM      30.27R                  
PANAMA CITY    FAIR      37  34  89 N5        30.24R WCI  33          
TYNDALL AFB    CLEAR     43  35  73 NE8       30.25R WCI  38          
APALACHICOLA   CLEAR     44  35  70 NE8       30.23R WCI  39          

STATION/POSITION SKY/WX   TEMP    WIND        PRES    WAVE   SWELL
                          AIR SEA DIR/SP/G            HT/PER HT/PER
                          (F)     (DEG/KT/KT) (MB)    (FT/S) (FT/S)
30.1N   87.6W              52 62   30/ 14/ 16 1023.7R   2/ 4
29.2N   88.2W              60 66   50/ 16/ 17 1024.0R   3/ 4
28.7N   86.0W              60 70   40/ 12/ 16 1023.1R   3/ 5   2/ 6
PANAMA CITY BEAC           41 59   20/  5/  7 1024.0R
CAPE SAN BLAS    NOT AVBL
TOWER C                    51      30/ 14/ 16 1023.3R
28.5N   84.5W              59 68   20/ 12/ 16 1022.4R   4/ 7   2/ 7

**********************************************************************
  Louisiana
800 AM CST WED JAN 28 2015

LAZ040-048-061>063-065-066-069-281500-
SOUTHEAST LOUISIANA
  
CITY           SKY/WX    TMP DP  RH WIND       PRES   REMARKS
N.O. AUDUBON     N/A     53  42  67 MISG        N/A                   
N.O. INTL ARPT SUNNY     51  36  56 E10       30.27R                  
N.O. LAKEFRONT SUNNY     52  38  58 E13       30.28R                  
N.O. DOWNTOWN* FAIR      50  36  57 NE5       30.27R                  
SLIDELL        SUNNY     46  36  68 VRB6      30.27R                  
BATON ROUGE    SUNNY     45  38  76 E3        30.26R                  
BOOTHVILLE     SUNNY     53  47  79 NE8       30.27R                  
BELLE CHASSE   SUNNY     51  41  68 E9        30.26R                  
BOGALUSA*        N/A     38  36  90 CALM      30.29S                  
GALLIANO*      SUNNY     54  44  68 MISG      30.27R                  
NEW ROADS*     FAIR      47  38  71 E6        30.26R                  
GONZALES*      FAIR      49  41  75 CALM      30.26R                  
HAMMOND*       SUNNY     48  36  61 E5        30.29R                  
HOUMA*         SUNNY     46  43  87 NE7       30.26R                  
PORT FOURCHON* SUNNY     55  48  76 NE10      30.29R                  

**********************************************************************
  Mississippi
800 AM CST WED JAN 28 2015

MSZ080>082-281500-
COASTAL MISSISSIPPI
  
CITY           SKY/WX    TMP DP  RH WIND       PRES   REMARKS
BAY ST LOUIS   SUNNY     45  32  61 CALM      30.29R                  
BILOXI         SUNNY     45  37  71 NE6       30.29R                  
PASCAGOULA     SUNNY     44  37  76 N3        30.30R                  
GULFPORT       SUNNY     46  35  65 NE6       30.29R                  
About Us | Coastal Marine Forecast | Offshore Marine Forecast
Gulf Coast Tides | Hourly Weather Observations | Weather Radar
Sea Surface Temperatures | Solar/Lunar Data | Hurricane Advisories | Home
     
USA Logo Dr. Bill's Marine Weather
Last date changed: December 9, 2014 4:08 PM
www.gulfmarineweather.com/hourlyweatherobservations.shtml
Contact Us